1 Minute Report
Date Time Wind Direction Wind Speed Wind Gust Wind Variable Altimeter Temperature Dewpoint Relative Humidity Visibility Ceiling Precip Present Weather Density Alt Wind Chill Heat Index
17/09/25 04:31 000 00 N/A N/A 30.14 61(F), 16(C) Missing N/A M1/4 OVC001 N/A Fog N/A 61 F N/A 4013
17/09/25 04:30 000 00 N/A N/A 30.14 61(F), 16(C) Missing N/A M1/4 OVC001 N/A Fog N/A 61 F N/A 4012
17/09/25 04:29 000 00 N/A N/A 30.14 61(F), 16(C) Missing N/A 1/4 OVC001 N/A Fog N/A 61 F N/A 4011
17/09/25 04:28 000 00 N/A N/A 30.14 61(F), 16(C) Missing N/A 1/4 OVC001 N/A Fog N/A 61 F N/A 4010
17/09/25 04:27 000 00 N/A N/A 30.14 61(F), 16(C) Missing N/A 1/4 OVC001 N/A Fog N/A 61 F N/A 4009
17/09/25 04:26 000 00 N/A N/A 30.14 61(F), 16(C) Missing N/A 1/4 OVC001 N/A Fog N/A 61 F N/A 4008
17/09/25 04:25 000 00 N/A N/A 30.14 61(F), 16(C) Missing N/A 1/4 OVC001 N/A Fog N/A 61 F N/A 4007
17/09/25 04:24 000 00 N/A N/A 30.14 61(F), 16(C) Missing N/A 1/4 OVC001 N/A Fog N/A 61 F N/A 4006
17/09/25 04:23 000 00 N/A N/A 30.14 61(F), 16(C) Missing N/A 1/4 OVC001 N/A Fog N/A 61 F N/A 4005
17/09/25 04:22 000 00 N/A N/A 30.14 62(F), 17(C) Missing N/A 1/4 OVC001 N/A Fog N/A 62 F N/A 4004
17/09/25 04:21 000 00 N/A N/A 30.14 62(F), 17(C) Missing N/A 1/4 OVC001 N/A Fog N/A 62 F N/A 4003
17/09/25 04:20 000 00 N/A N/A 30.14 62(F), 17(C) Missing N/A 1/4 OVC001 N/A Fog N/A 62 F N/A 4002
17/09/25 04:19 000 00 N/A N/A 30.14 62(F), 17(C) Missing N/A 1/4 OVC001 N/A Fog N/A 62 F N/A 4001
17/09/25 04:18 000 00 N/A N/A 30.14 62(F), 17(C) Missing N/A 1/4 OVC001 N/A Fog N/A 62 F N/A 4000
17/09/25 04:17 000 00 N/A N/A 30.14 63(F), 17(C) Missing N/A 1/4 OVC001 N/A Fog N/A 63 F N/A 3999
17/09/25 04:16 000 00 N/A N/A 30.14 63(F), 17(C) Missing N/A 1/4 OVC001 N/A Fog N/A 63 F N/A 3998
17/09/25 04:15 000 00 N/A N/A 30.14 63(F), 17(C) Missing N/A 1/4 OVC001 N/A Fog N/A 63 F N/A 3997
17/09/25 04:14 000 00 N/A N/A 30.14 63(F), 17(C) Missing N/A 1/2 BKN001 N/A Fog N/A 63 F N/A 3996
17/09/25 04:13 000 00 N/A N/A 30.14 63(F), 17(C) Missing N/A 1/2 BKN001 N/A Fog N/A 63 F N/A 3995
17/09/25 04:12 000 00 N/A N/A 30.14 63(F), 17(C) Missing N/A 1/2 BKN001 N/A Fog N/A 63 F N/A 3994
17/09/25 04:11 000 00 N/A N/A 30.14 62(F), 17(C) Missing N/A 3/4 BKN001 N/A Mist N/A 62 F N/A 3993
17/09/25 04:10 000 00 N/A N/A 30.14 62(F), 17(C) Missing N/A 1 VV007 N/A Mist N/A 62 F N/A 3992
17/09/25 04:09 000 00 N/A N/A 30.14 62(F), 17(C) Missing N/A 1 VV007 N/A Mist N/A 62 F N/A 3991
17/09/25 04:08 000 00 N/A N/A 30.14 62(F), 17(C) Missing N/A 1 VV007 N/A Mist N/A 62 F N/A 3990
17/09/25 04:07 000 00 N/A N/A 30.14 62(F), 17(C) Missing N/A 1 VV007 N/A Mist N/A 62 F N/A 3989
17/09/25 04:06 000 00 N/A N/A 30.14 62(F), 17(C) Missing N/A 1 1/4 VV007 N/A Mist N/A 62 F N/A 3988
17/09/25 04:05 000 00 N/A N/A 30.14 62(F), 17(C) Missing N/A 1 1/4 VV007 N/A Mist N/A 62 F N/A 3987
17/09/25 04:04 000 00 N/A N/A 30.14 62(F), 17(C) Missing N/A 1 1/4 VV007 N/A Mist N/A 62 F N/A 3986
17/09/25 04:03 000 00 N/A N/A 30.14 63(F), 17(C) Missing N/A 1 1/4 VV007 N/A Mist N/A 63 F N/A 3985
17/09/25 04:02 000 00 N/A N/A 30.14 63(F), 17(C) Missing N/A 1 1/4 VV007 N/A Mist N/A 63 F N/A 3984
17/09/25 04:01 000 00 N/A N/A 30.14 63(F), 17(C) Missing N/A 1 1/4 VV007 N/A Mist N/A 63 F N/A 3983
17/09/25 04:00 000 00 N/A N/A 30.14 63(F), 17(C) Missing N/A 1 1/2 VV007 N/A Mist N/A 63 F N/A 3982
17/09/25 03:59 000 00 N/A N/A 30.14 63(F), 17(C) Missing N/A 2 CLR N/A Mist N/A 63 F N/A 3981
17/09/25 03:58 000 00 N/A N/A 30.14 63(F), 17(C) Missing N/A 2 CLR N/A Mist N/A 63 F N/A 3980
17/09/25 03:57 000 00 N/A N/A 30.14 63(F), 17(C) Missing N/A 2 CLR N/A Mist N/A 63 F N/A 3979
17/09/25 03:56 000 00 N/A N/A 30.14 63(F), 17(C) Missing N/A 2 CLR N/A Mist N/A 63 F N/A 3978
17/09/25 03:55 000 00 N/A N/A 30.14 63(F), 17(C) Missing N/A 2 CLR N/A Mist N/A 63 F N/A 3977
17/09/25 03:54 000 00 N/A N/A 30.14 63(F), 17(C) Missing N/A 2 CLR N/A Mist N/A 63 F N/A 3976
17/09/25 03:53 000 00 N/A N/A 30.14 63(F), 17(C) Missing N/A 1 1/4 VV007 N/A Mist N/A 63 F N/A 3975
17/09/25 03:52 000 00 N/A N/A 30.14 63(F), 17(C) Missing N/A 1 1/4 VV007 N/A Mist N/A 63 F N/A 3974
17/09/25 03:51 000 00 N/A N/A 30.14 63(F), 17(C) Missing N/A 1 1/4 VV007 N/A Mist N/A 63 F N/A 3973
17/09/25 03:50 000 00 N/A N/A 30.14 63(F), 17(C) Missing N/A 1 1/4 VV007 N/A Mist N/A 63 F N/A 3972
17/09/25 03:49 000 00 N/A N/A 30.14 63(F), 17(C) Missing N/A 1 1/4 VV007 N/A Mist N/A 63 F N/A 3971
17/09/25 03:48 000 00 N/A N/A 30.14 63(F), 17(C) Missing N/A 1 1/4 VV007 N/A Mist N/A 63 F N/A 3970
17/09/25 03:47 000 00 N/A N/A 30.14 63(F), 17(C) Missing N/A 1 1/4 VV007 N/A Mist N/A 63 F N/A 3969
17/09/25 03:46 000 00 N/A N/A 30.14 63(F), 17(C) Missing N/A 1 1/4 VV007 N/A Mist N/A 63 F N/A 3968
17/09/25 03:45 000 00 N/A N/A 30.14 63(F), 17(C) Missing N/A 1 1/4 VV007 N/A Mist N/A 63 F N/A 3967
17/09/25 03:44 000 00 N/A N/A 30.14 63(F), 17(C) Missing N/A 1 1/4 VV007 N/A Mist N/A 63 F N/A 3966
17/09/25 03:43 000 00 N/A N/A 30.14 63(F), 17(C) Missing N/A 1 1/2 VV007 N/A Mist N/A 63 F N/A 3965
17/09/25 03:42 000 00 N/A N/A 30.14 63(F), 17(C) Missing N/A 1 3/4 VV007 N/A Mist N/A 63 F N/A 3964
17/09/25 03:41 000 00 N/A N/A 30.14 63(F), 17(C) Missing N/A 1 1/2 VV007 N/A Mist N/A 63 F N/A 3963
17/09/25 03:40 000 00 N/A N/A 30.14 63(F), 17(C) Missing N/A 1 1/2 VV007 N/A Mist N/A 63 F N/A 3962
17/09/25 03:39 000 00 N/A N/A 30.14 63(F), 17(C) Missing N/A 1 1/2 VV007 N/A Mist N/A 63 F N/A 3961
17/09/25 03:38 000 00 N/A N/A 30.14 63(F), 17(C) Missing N/A 1 1/2 VV007 N/A Mist N/A 63 F N/A 3960
17/09/25 03:37 000 00 N/A N/A 30.14 63(F), 17(C) Missing N/A 1 1/2 VV007 N/A Mist N/A 63 F N/A 3959
17/09/25 03:36 000 00 N/A N/A 30.14 63(F), 17(C) Missing N/A 1 3/4 VV007 N/A Mist N/A 63 F N/A 3958
17/09/25 03:35 000 00 N/A N/A 30.14 63(F), 17(C) Missing N/A 1 3/4 VV007 N/A Mist N/A 63 F N/A 3957
17/09/25 03:34 000 00 N/A N/A 30.14 63(F), 17(C) Missing N/A 2 CLR N/A Mist N/A 63 F N/A 3956
17/09/25 03:33 000 00 N/A N/A 30.14 63(F), 17(C) Missing N/A 2 CLR N/A Mist N/A 63 F N/A 3955
17/09/25 03:32 000 00 N/A N/A 30.14 63(F), 17(C) Missing N/A 2 1/2 CLR N/A Mist N/A 63 F N/A 3954
17/09/25 03:31 000 00 N/A N/A 30.14 63(F), 17(C) Missing N/A 2 CLR N/A Mist N/A 63 F N/A 3953
17/09/25 03:30 000 00 N/A N/A 30.14 63(F), 17(C) Missing N/A 1 3/4 VV007 N/A Mist N/A 63 F N/A 3952
17/09/25 03:29 000 00 N/A N/A 30.14 63(F), 17(C) Missing N/A 1 3/4 VV007 N/A Mist N/A 63 F N/A 3951
17/09/25 03:28 000 00 N/A N/A 30.14 63(F), 17(C) Missing N/A 2 CLR N/A Mist N/A 63 F N/A 3950
17/09/25 03:27 000 00 N/A N/A 30.14 63(F), 17(C) Missing N/A 2 CLR N/A Mist N/A 63 F N/A 3949
17/09/25 03:26 000 00 N/A N/A 30.14 64(F), 18(C) Missing N/A 2 CLR N/A Mist N/A 64 F N/A 3948
17/09/25 03:25 000 00 N/A N/A 30.14 64(F), 18(C) Missing N/A 2 CLR N/A Mist N/A 64 F N/A 3947
17/09/25 03:24 000 00 N/A N/A 30.14 65(F), 18(C) Missing N/A 2 CLR N/A Mist N/A 65 F N/A 3946
17/09/25 03:23 000 00 N/A N/A 30.14 65(F), 18(C) Missing N/A 2 CLR N/A Mist N/A 65 F N/A 3945
17/09/25 03:22 000 00 N/A N/A 30.14 65(F), 18(C) Missing N/A 1 3/4 VV007 N/A Mist N/A 65 F N/A 3944
17/09/25 03:21 000 00 N/A N/A 30.14 65(F), 18(C) Missing N/A 2 CLR N/A Mist N/A 65 F N/A 3943
17/09/25 03:20 000 00 N/A N/A 30.14 65(F), 18(C) Missing N/A 2 1/2 CLR N/A Mist N/A 65 F N/A 3942
17/09/25 03:19 000 00 N/A N/A 30.14 65(F), 18(C) Missing N/A 2 1/2 CLR N/A Mist N/A 65 F N/A 3941
17/09/25 03:18 000 00 N/A N/A 30.14 65(F), 18(C) Missing N/A 2 1/2 CLR N/A Mist N/A 65 F N/A 3940
17/09/25 03:17 000 00 N/A N/A 30.14 65(F), 18(C) Missing N/A 3 CLR N/A Mist N/A 65 F N/A 3939
17/09/25 03:16 000 00 N/A N/A 30.14 64(F), 18(C) Missing N/A 2 1/2 CLR N/A Mist N/A 64 F N/A 3938
17/09/25 03:15 000 00 N/A N/A 30.14 64(F), 18(C) Missing N/A 2 1/2 CLR N/A Mist N/A 64 F N/A 3937
17/09/25 03:14 000 00 N/A N/A 30.14 64(F), 18(C) Missing N/A 2 1/2 CLR N/A Mist N/A 64 F N/A 3936
17/09/25 03:13 000 00 N/A N/A 30.14 64(F), 18(C) Missing N/A 2 1/2 CLR N/A Mist N/A 64 F N/A 3935
17/09/25 03:12 000 00 N/A N/A 30.14 63(F), 17(C) Missing N/A 2 1/2 CLR N/A Mist N/A 63 F N/A 3934
17/09/25 03:11 000 00 N/A N/A 30.14 63(F), 17(C) Missing N/A 2 1/2 CLR N/A Mist N/A 63 F N/A 3933
17/09/25 03:10 000 00 N/A N/A 30.14 63(F), 17(C) Missing N/A 2 1/2 CLR N/A Mist N/A 63 F N/A 3932
17/09/25 03:09 000 00 N/A N/A 30.14 63(F), 17(C) Missing N/A 2 1/2 CLR N/A Mist N/A 63 F N/A 3931
17/09/25 03:08 000 00 N/A N/A 30.14 63(F), 17(C) Missing N/A 2 1/2 CLR N/A Mist N/A 63 F N/A 3930
17/09/25 03:07 000 00 N/A N/A 30.14 63(F), 17(C) Missing N/A 2 1/2 CLR N/A Mist N/A 63 F N/A 3929
17/09/25 03:06 000 00 N/A N/A 30.14 63(F), 17(C) Missing N/A 2 1/2 CLR N/A Mist N/A 63 F N/A 3928
17/09/25 03:05 000 00 N/A N/A 30.14 63(F), 17(C) Missing N/A 2 1/2 CLR N/A Mist N/A 63 F N/A 3927
17/09/25 03:04 000 00 N/A N/A 30.14 63(F), 17(C) Missing N/A 2 1/2 CLR N/A Mist N/A 63 F N/A 3926
17/09/25 03:03 000 00 N/A N/A 30.14 64(F), 18(C) Missing N/A 2 1/2 CLR N/A Mist N/A 64 F N/A 3925
17/09/25 03:02 000 00 N/A N/A 30.14 64(F), 18(C) Missing N/A 2 1/2 CLR N/A Mist N/A 64 F N/A 3924
17/09/25 03:01 000 00 N/A N/A 30.14 65(F), 18(C) Missing N/A 2 1/2 CLR N/A Mist N/A 65 F N/A 3923
17/09/25 03:00 000 00 N/A N/A 30.14 65(F), 18(C) Missing N/A 2 1/2 CLR N/A Mist N/A 65 F N/A 3922
17/09/25 02:59 000 00 N/A N/A 30.14 65(F), 18(C) Missing N/A 2 1/2 CLR N/A Mist N/A 65 F N/A 3921
17/09/25 02:58 000 00 N/A N/A 30.14 65(F), 18(C) Missing N/A 2 CLR N/A Mist N/A 65 F N/A 3920
17/09/25 02:57 000 00 N/A N/A 30.14 65(F), 18(C) Missing N/A 2 CLR N/A Mist N/A 65 F N/A 3919
17/09/25 02:56 000 00 N/A N/A 30.14 65(F), 18(C) Missing N/A 2 CLR N/A Mist N/A 65 F N/A 3918
17/09/25 02:55 000 00 N/A N/A 30.14 65(F), 18(C) Missing N/A 1 3/4 VV007 N/A Mist N/A 65 F N/A 3917
17/09/25 02:54 000 00 N/A N/A 30.14 65(F), 18(C) Missing N/A 1 3/4 VV007 N/A Mist N/A 65 F N/A 3916
17/09/25 02:53 000 00 N/A N/A 30.14 65(F), 18(C) Missing N/A 1 3/4 VV007 N/A Mist N/A 65 F N/A 3915
17/09/25 02:52 000 00 N/A N/A 30.14 65(F), 18(C) Missing N/A 1 1/2 VV007 N/A Mist N/A 65 F N/A 3914
17/09/25 02:51 000 00 N/A N/A 30.14 65(F), 18(C) Missing N/A 1 1/2 VV007 N/A Mist N/A 65 F N/A 3913
17/09/25 02:50 000 00 N/A N/A 30.14 65(F), 18(C) Missing N/A 1 1/4 VV007 N/A Mist N/A 65 F N/A 3912
17/09/25 02:49 000 00 N/A N/A 30.14 65(F), 18(C) Missing N/A 1 1/4 VV007 N/A Mist N/A 65 F N/A 3911
17/09/25 02:48 000 00 N/A N/A 30.14 65(F), 18(C) Missing N/A 1 1/4 VV007 N/A Mist N/A 65 F N/A 3910
17/09/25 02:47 000 00 N/A N/A 30.14 65(F), 18(C) Missing N/A 1 VV007 N/A Mist N/A 65 F N/A 3909
17/09/25 02:46 000 00 N/A N/A 30.14 65(F), 18(C) Missing N/A 1 VV007 N/A Mist N/A 65 F N/A 3908
17/09/25 02:45 000 00 N/A N/A 30.14 65(F), 18(C) Missing N/A 1 VV007 N/A Mist N/A 65 F N/A 3907
17/09/25 02:44 000 00 N/A N/A 30.14 65(F), 18(C) Missing N/A 1 VV007 N/A Mist N/A 65 F N/A 3906
17/09/25 02:43 000 00 N/A N/A 30.14 65(F), 18(C) Missing N/A 1 VV007 N/A Mist N/A 65 F N/A 3905
17/09/25 02:42 000 00 N/A N/A 30.14 66(F), 19(C) Missing N/A 1 VV007 N/A Mist N/A 66 F N/A 3904
17/09/25 02:41 000 00 N/A N/A 30.14 66(F), 19(C) Missing N/A 1 1/4 VV007 N/A Mist N/A 66 F N/A 3903
17/09/25 02:40 000 00 N/A N/A 30.14 66(F), 19(C) Missing N/A 1 1/2 VV007 N/A Mist N/A 66 F N/A 3902
17/09/25 02:39 000 00 N/A N/A 30.14 66(F), 19(C) Missing N/A 1 1/2 VV007 N/A Mist N/A 66 F N/A 3901
17/09/25 02:38 000 00 N/A N/A 30.14 67(F), 19(C) Missing N/A 1 3/4 VV007 N/A Mist N/A 67 F N/A 3900
17/09/25 02:37 000 00 N/A N/A 30.14 67(F), 19(C) Missing N/A 2 CLR N/A Mist N/A 67 F N/A 3899
17/09/25 02:36 000 00 N/A N/A 30.14 67(F), 19(C) Missing N/A 2 1/2 CLR N/A Mist N/A 67 F N/A 3898
17/09/25 02:35 000 00 N/A N/A 30.14 66(F), 19(C) Missing N/A 3 CLR N/A Mist N/A 66 F N/A 3897
17/09/25 02:34 000 00 N/A N/A 30.14 66(F), 19(C) Missing N/A 3 CLR N/A Mist N/A 66 F N/A 3896
17/09/25 02:33 000 00 N/A N/A 30.14 65(F), 18(C) Missing N/A 3 CLR N/A Mist N/A 65 F N/A 3895
17/09/25 02:32 000 00 N/A N/A 30.14 65(F), 18(C) Missing N/A 3 CLR N/A Mist N/A 65 F N/A 3894
17/09/25 02:31 000 00 N/A N/A 30.14 65(F), 18(C) Missing N/A 3 CLR N/A Mist N/A 65 F N/A 3893